Visalia, CA

11:44 PM PDT on October 21, 2019 (GMT -0700)
Visalia Municipal

Weather History for KVIS - September, 2019

Change the Weather History Date:

Wednesday, September 18, 2019

  Actual Average Record
Temperature  
Mean Temperature 68 °F -  
Max Temperature 84 °F 87 °F 105 °F (1935)
Min Temperature 52 °F 59 °F 45 °F (1947)
Cooling Degree Days 3    
Growing Degree Days 18 (Base 50)    
Moisture  
Dew Point 50 °F    
Average Humidity 56    
Maximum Humidity 89    
Minimum Humidity 27    
Precipitation  
Precipitation 0.00 in - - ()
Sea Level Pressure  
Sea Level Pressure 29.93 in    
Wind  
Wind Speed 3 mph (WNW)    
Max Wind Speed 9 mph    
Max Gust Speed -    
Visibility 10 miles    
Events      
Averages and records for this station are not official NWS values.
T = Trace of Precipitation, MM = Missing Value Source: NWS Daily Summary

Daily Weather History Graph

Daily Weather History Graph

Search for Another Location

Airport or City:

Astronomy

Sep. 18, 2019 Rise Set
Actual Time 6:42 AM PDT 7:00 PM PDT
Civil Twilight 6:16 AM PDT 7:26 PM PDT
Nautical Twilight 5:46 AM PDT 7:56 PM PDT
Astronomical Twilight 5:15 AM PDT 8:27 PM PDT
Moon 9:44 PM PDT (9/18) 10:43 AM PDT (9/18)
Length of Visible Light 13h 09m
Length of Day
12h 18m
Waning Gibbous, 82% of the Moon is Illuminated
Sep 18
Waning Gibbous
Sep 21
Last Quarter
Sep 28
New
Oct 5
First Quarter
Oct 13
Full

Hourly Weather History & Observations

Time (PDT) Temp. Dew Point Humidity Pressure Visibility Wind Dir Wind Speed Gust Speed Precip Events Conditions
12:56 AM 57.9 °F 51.1 °F 78% 29.96 in 10.0 mi Calm Calm - N/A   Unknown
1:56 AM 59.0 °F 51.1 °F 75% 29.96 in 10.0 mi WNW 3.5 mph - N/A   Unknown
2:56 AM 59.0 °F 48.9 °F 69% 29.95 in 10.0 mi WNW 4.6 mph - N/A   Unknown
3:56 AM 57.0 °F 48.9 °F 74% 29.95 in 10.0 mi NW 4.6 mph - N/A   Unknown
4:56 AM 55.9 °F 48.9 °F 77% 29.96 in 10.0 mi Calm Calm - N/A   Unknown
5:56 AM 52.0 °F 48.9 °F 89% 29.96 in 10.0 mi Calm Calm - N/A   Unknown
6:56 AM 52.0 °F 48.0 °F 86% 29.98 in 9.0 mi Calm Calm - N/A   Unknown
7:56 AM 55.0 °F 50.0 °F 83% 30.00 in 10.0 mi Calm Calm - N/A   Unknown
8:56 AM 61.0 °F 51.1 °F 70% 30.00 in 10.0 mi Calm Calm - N/A   Unknown
9:56 AM 66.0 °F 52.0 °F 60% 30.01 in 10.0 mi SSW 4.6 mph - N/A   Unknown
10:56 AM 72.0 °F 52.0 °F 49% 30.00 in 10.0 mi West 4.6 mph - N/A   Unknown
11:56 AM 75.0 °F 50.0 °F 41% 29.98 in 10.0 mi West 4.6 mph - N/A   Unknown
12:56 PM 78.1 °F 50.0 °F 37% 29.96 in 10.0 mi WSW 6.9 mph - N/A   Unknown
1:56 PM 82.0 °F 48.0 °F 30% 29.94 in 10.0 mi Variable 6.9 mph - N/A   Unknown
2:56 PM 82.9 °F 46.9 °F 28% 29.91 in 10.0 mi West 4.6 mph - N/A   Unknown
3:56 PM 84.0 °F 46.9 °F 27% 29.89 in 10.0 mi NNW 6.9 mph - N/A   Unknown
4:56 PM 84.0 °F 48.0 °F 28% 29.88 in 10.0 mi NW 5.8 mph - N/A   Unknown
5:56 PM 82.9 °F 46.9 °F 28% 29.87 in 10.0 mi NW 8.1 mph - N/A   Unknown
6:56 PM 78.1 °F 48.0 °F 35% 29.86 in 10.0 mi WNW 4.6 mph - N/A   Unknown
7:56 PM 73.9 °F 48.9 °F 41% 29.86 in 10.0 mi WNW 9.2 mph - N/A   Unknown
8:56 PM 73.0 °F 53.1 °F 49% 29.87 in 10.0 mi NW 9.2 mph - N/A   Unknown
9:56 PM 70.0 °F 53.1 °F 55% 29.88 in 10.0 mi NNW 4.6 mph - N/A   Unknown
10:56 PM 68.0 °F 54.0 °F 61% 29.88 in 10.0 mi NNW 6.9 mph - N/A   Unknown
11:56 PM 66.9 °F 55.0 °F 66% 29.88 in 10.0 mi NW 8.1 mph - N/A   Unknown